This is the latest recevied weather packets stored in our database for station/object OH2HCY-3. If no packets are shown the sender has not sent any weather packets the latest 10 day(s).
| Time | Temp. | Humidity | Pressure | Rain* | Wind** | Luminosity | Snow |
|---|---|---|---|---|---|---|---|
| 1777857035 | 3.89° C | 83% | 1007.1 hPa | - | - | - | - |
| 1777855855 | 3.89° C | 84% | 1007.2 hPa | - | - | - | - |
| 1777854680 | 4.44° C | 84% | 1007.1 hPa | - | - | - | - |
| 1777853595 | 4.44° C | 85% | 1007.3 hPa | - | - | - | - |
| 1777852622 | 5° C | - | - | - | - | - | - |
| 1777852620 | 5° C | 85% | 1007.4 hPa | - | - | - | - |
| 1777851645 | 5° C | 85% | 1007.2 hPa | - | - | - | - |
| 1777850485 | 5.56° C | 84% | 1007.4 hPa | - | - | - | - |
| 1777849398 | - | - | - | - | - | - | - |
| 1777849395 | 5.56° C | 85% | 1007.4 hPa | - | - | - | - |
| 1777848265 | 5.56° C | 85% | 1007.7 hPa | - | - | - | - |
| 1777847209 | 5.56° C | - | - | - | - | - | - |
| 1777847205 | 5.56° C | 85% | 1007.7 hPa | - | - | - | - |
| 1777846227 | 6.11° C | 85% | 1007.7 hPa | - | - | - | - |
| 1777845067 | 6.11° C | 85% | 1007.8 hPa | - | - | - | - |
| 1777844085 | 6.67° C | 84% | 1007.9 hPa | - | - | - | - |
| 1777843035 | 6.67° C | 84% | 1007.9 hPa | - | - | - | - |
| 1777841939 | 6.67° C | 83% | 1007.9 hPa | - | - | - | - |
| 1777840820 | 7.22° C | 81% | 1007.8 hPa | - | - | - | - |
| 1777839625 | 7.78° C | 80% | 1007.9 hPa | - | - | - | - |
| 1777838557 | 8.89° C | 76% | 1007.8 hPa | - | - | - | - |
| 1777837487 | 9.44° C | 75% | - | - | - | - | - |
| 1777837485 | 9.44° C | 75% | 1007.8 hPa | - | - | - | - |
| 1777836445 | 10° C | 73% | 1007.8 hPa | - | - | - | - |
| 1777835450 | 10° C | 72% | 1007.8 hPa | - | - | - | - |
* Rain since midnight (hover to see other rain measurements)
** Current wind speed in m/s (hover to see current wind gust speed)